Regional Weather Roundup
Issued by NWS State College, PA

Home | Current Version | Previous Version | Text Only | Print | Product List | Glossary Off
Versions: 1 2 3 4 5 6 7 8 9 10 11 12 13 14 15 16 17 18 19 20 21 22 23 24 25 26 27 28 29 30 31 32 33 34 35 36 37 38 39 40 41 42 43 44 45 46 47 48 49 50

848
ASUS41 KCTP 300910
RWRCTP

REGIONAL WEATHER ROUNDUP
NATIONAL WEATHER SERVICE STATE COLLEGE PA
500 AM EDT THU MAR 30 2017

Note: "fair" indicates few or no clouds below 12,000 feet with no
significant weather and/or obstructions to visibility.

* = STATION THAT DOES NOT REPORT PRECIPITATION /E.G. RAIN...SNOW...ETC/
    THUNDER OR FOG.

PAZ002>004-007>009-013>016-020>023-029>032-301000-
WESTERN PENNSYLVANIA

CITY           SKY/WX    TMP DP  RH WIND       PRES   REMARKS
ERIE           CLOUDY    41  32  70 NE9       30.16F
MEADVILLE      CLOUDY    42  27  55 E10       30.12F
FRANKLIN*      MOCLDY    39  25  56 E8        30.14F
NEW CASTLE     CLOUDY    45  29  53 E12       30.11F
BEAVER COUNTY  NOT AVBL
BUTLER*        CLOUDY    43  28  56 E17       30.11F
PITTSBURGH INT CLOUDY    46  30  53 E12       30.08S
PITTSBURGH     CLOUDY    45  27  49 NE8       30.07S
INDIANA*       MOCLDY    41  28  60 E12G20    30.17S
LATROBE        CLOUDY    46  28  49 E9G17     30.10S
WASHINGTON CO* CLOUDY    45  30  57 NE9       30.08R
$$

PAZ004>006-010>012-017>019-024>028-033>037-041-042-045-046-049>053-301000-
CENTRAL PENNSYLVANIA

CITY           SKY/WX    TMP DP  RH WIND       PRES   REMARKS
BRADFORD       CLOUDY    33  23  66 E9        30.16F
DUBOIS         CLOUDY    37  24  59 E8        30.15S
CLEARFIELD     CLOUDY    36  25  64 NE9       30.19F
JOHNSTOWN      CLOUDY    37  27  67 E10       30.12R
ALTOONA        PTCLDY    39  28  64 E7        30.18F
STATE COLLEGE  CLOUDY    36  27  69 NE5       30.22R
WILLIAMSPORT   CLOUDY    34  27  75 CALM      30.24F
SELINSGROVE    CLOUDY    36  27  69 N5        30.26R
FT INDIANTOWN  CLOUDY    37  24  58 CALM      30.23S
CAPITAL CITY   PTCLDY    40  25  55 SE3       30.24R
HARRISBURG     MOCLDY    39  26  59 CALM      30.24R
YORK           CLEAR     33  29  85 CALM      30.23R
$$

PAZ038>040-043-044-047-048-054-055-060>062-067>071-301000-
EASTERN PENNSYLVANIA

CITY           SKY/WX    TMP DP  RH WIND       PRES   REMARKS
SCRANTON       CLOUDY    30  24  78 E3        30.24R
MOUNT POCONO   CLOUDY    28  22  78 NW5       30.18R
ALLENTOWN      CLOUDY    34  24  67 NE5       30.22F
QUAKERTOWN*    PTSUNNY   36  25  64 NE6       30.21F
READING        CLOUDY    38  26  62 NE5       30.22R
LANCASTER      CLOUDY    38  26  62 CALM      30.23S
COATESVILLE    PTSUNNY   37  23  56 CALM      30.23R
POTTSTOWN      CLOUDY    36  23  59 CALM      30.24R
BLUE BELL      CLOUDY    36  25  64 CALM      30.22R
DOYLESTOWN     CLOUDY    35  24  64 NE5       30.21S
WILLOW GROVE   NOT AVBL
NORTH PHILA    CLOUDY    38  25  59 N5        30.24R
PHILADELPHIA   MOCLDY    40  24  53 NE8       30.23R
$$




USA.gov is the U.S. government's official web portal to all federal, state and local government web resources and services.